EW7002 Weather Reports


Display with metric or nautical units.
time (UTC)temp
F
wind
direction
speed
MPH
gust
MPH
rain 1hr
in
rain 24hr
in
rain mn
in
humidity
%
barometer
mb
20260505010010 48 331 4.0 8.0 0.00 0.00 0.00 51 1014.7
20260505004515 47 355 4.0 8.0 0.00 0.00 0.00 54 1014.6
20260505003007 47 341 6.0 11.0 0.00 0.00 0.00 53 1014.5
20260505001507 47 4 3.0 9.0 0.00 0.00 0.00 55 1014.6
20260505000003 47 269 3.0 10.0 0.00 0.00 0.00 55 1014.5
20260504234503 47 310 3.0 13.0 0.00 0.00 0.00 55 1014.5
20260504233104 47 346 9.0 16.0 0.00 0.00 0.00 55 1014.4
20260504231600 48 358 15.0 21.0 0.00 0.00 0.00 54 1014.1
20260504230029 48 330 4.0 10.0 0.00 0.00 0.00 56 1014.0
20260504224529 48 318 2.0 9.0 0.00 0.00 0.00 59 1013.8
20260504223027 47 319 4.0 19.0 0.00 0.00 0.00 61 1014.0
20260504221528 48 342 12.0 20.0 0.00 0.00 0.00 53 1014.0
20260504220041 50 355 8.0 17.0 0.00 0.00 0.00 50 1013.8
20260504214525 49 335 6.0 15.0 0.00 0.00 0.00 46 1013.7
20260504213021 49 320 2.0 11.0 0.00 0.00 0.00 46 1013.9
20260504211521 48 339 5.0 13.0 0.00 0.00 0.00 49 1014.1
20260504210022 48 315 7.0 13.0 0.00 0.00 0.00 48 1014.4
20260504204533 48 342 12.0 20.0 0.00 0.00 0.00 47 1014.3
20260504203018 48 331 11.0 19.0 0.00 0.00 0.00 45 1014.2
20260504201546 48 358 14.0 23.0 0.00 0.00 0.00 44 1014.2
20260504200044 49 25 17.0 25.0 0.00 0.00 0.00 45 1013.9
20260504194542 50 342 17.0 22.0 0.00 0.00 0.00 45 1013.9
20260504193055 50 345 13.0 31.0 0.00 0.00 0.00 46 1013.6
20260504191540 51 342 10.0 21.0 0.00 0.00 0.00 48 1013.6
20260504190041 50 349 10.0 24.0 0.00 0.00 0.00 50 1013.7
20260504184508 50 312 12.0 21.0 0.00 0.00 0.00 50 1013.6
20260504183009 51 321 12.0 21.0 0.00 0.00 0.00 50 1013.5
20260504181503 51 332 9.0 22.0 0.00 0.00 0.00 51 1013.5
20260504180002 50 342 13.0 21.0 0.00 0.00 0.00 51 1013.7
20260504174601 50 355 11.0 23.0 0.00 0.00 0.00 53 1013.7
20260504173059 50 351 13.0 24.0 0.00 0.00 0.00 52 1013.8
20260504171556 50 339 12.0 20.0 0.00 0.00 0.00 52 1013.6
20260504120109 43 3 12.0 17.0 0.00 0.01 0.00 66 1010.1
20260504081511 38 216 1.0 4.0 0.00 0.01 0.00 73 1007.9
20260504044535 44 283 0.0 2.0 0.00 0.01 0.01 56 1008.8
20260504043039 43 347 1.0 3.0 0.00 0.01 0.01 56 1008.9
20260504041528 44 255 1.0 3.0 0.00 0.01 0.01 54 1008.9
20260504040104 45 314 1.0 5.0 0.00 0.01 0.01 53 1008.9
20260504034613 45 89 0.0 2.0 0.00 0.01 0.01 52 1009.2
20260504033058 46 269 0.0 3.0 0.00 0.01 0.01 50 1009.2
20260504031602 47 344 1.0 3.0 0.00 0.01 0.01 46 1009.1
20260504030052 48 240 0.0 3.0 0.00 0.01 0.01 43 1009.0
20260504024554 50 279 1.0 3.0 0.00 0.01 0.01 40 1009.0
20260504023050 53 250 1.0 3.0 0.00 0.01 0.01 35 1008.9
20260504021550 56 324 1.0 3.0 0.00 0.01 0.01 31 1008.7
20260504014552 62 322 2.0 6.0 0.00 0.01 0.01 25 1008.5
20260504013048 64 307 3.0 7.0 0.00 0.01 0.01 23 1008.6
20260504011546 65 293 4.0 11.0 0.00 0.01 0.01 21 1009.0